Regional Weather Roundup
Issued by NWS

Home | Current Version | Previous Version | Graphics & Text | Print | Product List | Glossary On
Versions: 1 2 3 4 5 6 7 8 9 10 11 12 13 14 15 16 17 18 19 20 21 22 23 24 25 26 27 28 29 30 31 32 33 34 35 36 37 38 39 40 41 42 43 44 45 46 47 48 49 50
000
ASUS43 KLMK 031002
RWRKY
KENTUCKY REGIONAL WEATHER ROUNDUP
NATIONAL WEATHER SERVICE LOUISVILLE KY
600 AM EDT FRI JUL 03 2015

NOTE "FAIR" INDICATES FEW OR NO CLOUDS BELOW 12,000 FEET
WITH NO SIGNIFICANT WEATHER AND/OR OBSTRUCTIONS TO VISIBILITY.

KYZ001>023-026-027-061>063-070>075-031100-
WESTERN AND SOUTH CENTRAL KENTUCKY

CITY           SKY/WX    TMP DP  RH WIND       PRES   REMARKS
PADUCAH        CLOUDY    71  69  93 N7        29.83R
HENDERSON      CLOUDY    72  66  83 CALM      29.82R
OWENSBORO      CLOUDY    72  71  96 CALM      29.83R FOG
HOPKINSVILLE   CLOUDY    72  71  96 SW10      29.84R
BOWLING GREEN  MOCLDY    71  69  93 S3        29.84R
GLASGOW        NOT AVBL
$$

KYZ024-025-028>034-038-045-046-053-031100-
NORTH CENTRAL KENTUCKY

CITY           SKY/WX    TMP DP  RH WIND       PRES   REMARKS
LOUISVILLE/SDF DRIZZLE   72  70  93 NE7       29.83R
LOUISVILLE/LOU CLOUDY    71  69  93 E5        29.84S FOG
FORT KNOX      CLOUDY    72  70  94 N3        29.82S
$$

KYZ035>037-039>044-047>052-055>060-089>105-031100-
NORTHEAST KENTUCKY

CITY           SKY/WX    TMP DP  RH WIND       PRES   REMARKS
LEXINGTON      CLOUDY    70  68  93 E5        29.86S
COVINGTON      CLOUDY    68  64  87 NE6       29.89S
FRANKFORT      CLOUDY    69  67  93 E3        29.85S
$$

KYZ054-064>069-076>088-106>120-031100-
SOUTHEAST KENTUCKY

CITY           SKY/WX    TMP DP  RH WIND       PRES   REMARKS
JACKSON        CLOUDY    68  66  93 SE3       29.89S
LONDON         CLOUDY    71  66  84 S5        29.88S
SOMERSET       NOT AVBL
MIDDLESBORO    NOT AVBL
MONTICELLO     CLOUDY    71  71 100 CALM      29.89S
$$



USA.gov is the U.S. government's official web portal to all federal, state and local government web resources and services.